Voltar ao catálogo

DELTA 1 DEB

AtivoSSO
NORAD 21457·DEBRIS·🇺🇸 United States

Lançado Jun 12, 1975 de Vandenberg Space Force Base

Loading…

Próximas Passagens (próximas 24 horas)

TLE

AtualizadoSource: Space-Track

Época: Sep 14, 2026, 05:04 UTC

1 21457U 75052ER  26257.21139238  .00000798  00000-0  11281-2 0  9998
2 21457  99.9534 169.7747 0286763 302.6794 216.4707 13.44626841714293

Acompanhe DELTA 1 DEB em tempo real com AllMySat

Download on the App Store